Change the Weather History Date:

Tuesday, January 21, 2014

  Actual Average Record
Temperature  
Mean Temperature 22 °F -  
Max Temperature 33 °F 34 °F 64 °F (2006)
Min Temperature 12 °F 21 °F 12 °F (2000)
Degree Days  
Heating Degree Days 42    
Moisture  
Dew Point 12 °F    
Average Humidity 64    
Maximum Humidity 80    
Minimum Humidity 43    
Precipitation  
Precipitation 0.03 in - - ()
Sea Level Pressure  
Sea Level Pressure 29.88 in    
Wind  
Wind Speed 10 mph (NNE)    
Max Wind Speed 20 mph    
Max Gust Speed 28 mph    
Visibility 5 miles    
Events      
Averages and records for this station are not official NWS values.
T = Trace of Precipitation, MM = Missing Value Source: NWS Daily Summary

Daily Weather History Graph

Daily Weather History Graph

Search for Another Location

Airport or City:

Trip Planner

Search our weather history database for the weather conditions in past years. The results will help you decide how hot, cold, wet, or windy it might be!

Date:

Astronomy

Jan. 21, 2014 Rise Set
Actual Time 7:13 AM EST 5:02 PM EST
Civil Twilight 6:44 AM EST 5:31 PM EST
Nautical Twilight 6:11 AM EST 6:04 PM EST
Astronomical Twilight 5:39 AM EST 6:37 PM EST
Moon 10:32 PM EST (1/21) 9:41 AM EST (1/21)
Length of Visible Light 10h 47m
Length of Day
9h 48m
Waning Gibbous, 75% of the Moon is Illuminated
Jan 21
Waning Gibbous
Jan 24
Last Quarter
Jan 30
New
Feb 6
First Quarter
Feb 14
Full

Hourly Weather History & Observations

Time (EST) Temp. Windchill Dew Point Humidity Pressure Visibility Wind Dir Wind Speed Gust Speed Precip Events Conditions
12:15 AM 33.8 °F 28.6 °F 23.0 °F 65% 29.88 in 10.0 mi NNW 5.8 mph - N/A   Clear
12:35 AM 33.8 °F 30.8 °F 21.2 °F 60% 29.89 in 10.0 mi NNW 3.5 mph - N/A   Clear
12:55 AM 33.8 °F 30.8 °F 21.2 °F 60% 29.89 in 10.0 mi North 3.5 mph - N/A   Clear
1:15 AM 32.0 °F 25.6 °F 21.2 °F 64% 29.89 in 10.0 mi North 6.9 mph - N/A   Clear
1:35 AM 32.0 °F 24.8 °F 19.4 °F 60% 29.90 in 10.0 mi North 8.1 mph - N/A   Clear
1:55 AM 30.2 °F 24.3 °F 19.4 °F 64% 29.91 in 10.0 mi North 5.8 mph - N/A   Clear
2:15 AM 30.2 °F 21.9 °F 15.8 °F 55% 29.92 in 10.0 mi North 9.2 mph - N/A   Clear
2:35 AM 30.2 °F 21.9 °F 15.8 °F 55% 29.91 in 10.0 mi North 9.2 mph - N/A   Clear
2:55 AM 28.4 °F 18.5 °F 14.0 °F 55% 29.92 in 10.0 mi North 11.5 mph - N/A   Clear
3:15 AM 28.4 °F 18.0 °F 12.2 °F 51% 29.92 in 10.0 mi North 12.7 mph - N/A   Clear
3:35 AM 28.4 °F 18.0 °F 12.2 °F 51% 29.92 in 10.0 mi North 12.7 mph 17.3 mph N/A   Clear
3:55 AM 28.4 °F 17.0 °F 12.2 °F 51% 29.92 in 10.0 mi North 15.0 mph 18.4 mph N/A   Clear
4:15 AM 26.6 °F 17.5 °F 10.4 °F 51% 29.94 in 10.0 mi NNE 9.2 mph - N/A   Clear
4:35 AM 26.6 °F 18.2 °F 10.4 °F 51% 29.93 in 10.0 mi NNE 8.1 mph - N/A   Clear
4:55 AM 26.6 °F 16.2 °F 8.6 °F 47% 29.94 in 10.0 mi North 11.5 mph - N/A   Clear
5:15 AM 26.6 °F 18.2 °F 6.8 °F 43% 29.94 in 10.0 mi North 8.1 mph - N/A   Clear
5:35 AM 26.6 °F 20.0 °F 8.6 °F 47% 29.93 in 10.0 mi NNE 5.8 mph - N/A   Clear
5:55 AM 26.6 °F 18.2 °F 8.6 °F 47% 29.95 in 10.0 mi NE 8.1 mph - N/A   Mostly Cloudy
6:15 AM 26.6 °F 15.7 °F 8.6 °F 47% 29.93 in 10.0 mi NNE 12.7 mph - N/A   Overcast
6:35 AM 26.6 °F 18.2 °F 8.6 °F 47% 29.93 in 10.0 mi North 8.1 mph - N/A   Overcast
6:55 AM 26.6 °F 16.2 °F 8.6 °F 47% 29.94 in 10.0 mi North 11.5 mph - N/A   Overcast
7:15 AM 26.6 °F 17.5 °F 8.6 °F 47% 29.93 in 10.0 mi NNE 9.2 mph - N/A   Overcast
7:35 AM 26.6 °F 18.2 °F 8.6 °F 47% 29.95 in 10.0 mi North 8.1 mph - N/A   Overcast
7:55 AM 26.6 °F 17.5 °F 8.6 °F 47% 29.95 in 10.0 mi NE 9.2 mph - N/A   Overcast
8:15 AM 26.6 °F 16.8 °F 8.6 °F 47% 29.93 in 10.0 mi NE 10.4 mph - N/A   Overcast
8:35 AM 26.6 °F 18.2 °F 8.6 °F 47% 29.94 in 10.0 mi NNE 8.1 mph - N/A   Scattered Clouds
8:55 AM 28.4 °F 20.4 °F 8.6 °F 43% 29.94 in 10.0 mi NNE 8.1 mph - N/A   Mostly Cloudy
9:15 AM 28.4 °F 20.4 °F 12.2 °F 51% 29.94 in 10.0 mi ENE 8.1 mph 16.1 mph N/A   Overcast
9:35 AM 28.4 °F 19.1 °F 15.8 °F 59% 29.94 in 10.0 mi ENE 10.4 mph - N/A   Overcast
9:55 AM 28.4 °F 18.5 °F 15.8 °F 59% 29.94 in 10.0 mi ENE 11.5 mph - N/A   Overcast
10:15 AM 28.4 °F 18.0 °F 14.0 °F 55% 29.94 in 8.0 mi ENE 12.7 mph 20.7 mph N/A   Mostly Cloudy
10:35 AM 26.6 °F 14.7 °F 15.8 °F 64% 29.94 in 4.0 mi NE 15.0 mph 19.6 mph N/A   Overcast
10:55 AM 26.6 °F 16.8 °F 17.6 °F 69% 29.94 in 1.2 mi NNE 10.4 mph 17.3 mph N/A   Overcast
11:15 AM 24.8 °F 14.0 °F 17.6 °F 74% 29.93 in 1.0 mi NNE 11.5 mph - N/A   Overcast
11:35 AM 24.8 °F 15.3 °F 17.6 °F 74% 29.92 in 0.8 mi NNE 9.2 mph 18.4 mph N/A   Overcast
11:55 AM 24.8 °F 12.9 °F 17.6 °F 74% 29.90 in 1.0 mi NNE 13.8 mph 20.7 mph N/A   Overcast
12:15 PM 24.8 °F 12.9 °F 17.6 °F 74% 29.88 in 1.0 mi NNE 13.8 mph 21.9 mph N/A   Overcast
12:35 PM 23.0 °F 10.1 °F 15.8 °F 74% 29.85 in 0.8 mi NNE 15.0 mph 24.2 mph N/A   Overcast
12:55 PM 21.2 °F 7.3 °F 15.8 °F 80% 29.84 in 0.5 mi NNE 16.1 mph 23.0 mph N/A   Overcast
1:15 PM 21.2 °F 7.3 °F 14.0 °F 74% 29.82 in 0.2 mi NNE 16.1 mph 24.2 mph N/A   Overcast
1:35 PM 19.4 °F 5.0 °F 14.0 °F 80% 29.82 in 0.2 mi NNE 16.1 mph 21.9 mph 0.01 in   Overcast
1:55 PM 19.4 °F 7.9 °F 14.0 °F 80% 29.82 in 0.5 mi North 10.4 mph 16.1 mph 0.01 in   Overcast
2:15 PM 19.4 °F 5.5 °F 12.2 °F 74% 29.83 in 0.5 mi NNE 15.0 mph 20.7 mph N/A   Overcast
2:35 PM 19.4 °F 4.5 °F 12.2 °F 74% 29.83 in 0.5 mi NNE 17.3 mph 24.2 mph 0.01 in   Overcast
2:55 PM 17.6 °F 2.7 °F 10.4 °F 73% 29.83 in 0.8 mi NNE 16.1 mph 23.0 mph 0.01 in   Overcast
3:15 PM 17.6 °F 3.2 °F 10.4 °F 73% 29.83 in 0.5 mi NNE 15.0 mph 21.9 mph N/A   Overcast
3:35 PM 17.6 °F 3.2 °F 10.4 °F 73% 29.83 in 0.5 mi North 15.0 mph 23.0 mph N/A   Overcast
3:55 PM 17.6 °F 3.7 °F 10.4 °F 73% 29.83 in 0.5 mi North 13.8 mph 19.6 mph N/A   Overcast
4:15 PM 17.6 °F 2.7 °F 10.4 °F 73% 29.82 in 0.8 mi NNE 16.1 mph 20.7 mph N/A   Overcast
4:35 PM 17.6 °F 3.2 °F 10.4 °F 73% 29.82 in 1.0 mi North 15.0 mph 21.9 mph N/A   Overcast
4:55 PM 17.6 °F 3.7 °F 10.4 °F 73% 29.84 in 0.5 mi NNE 13.8 mph 20.7 mph N/A   Overcast
5:15 PM 17.6 °F 3.2 °F 10.4 °F 73% 29.83 in 0.8 mi North 15.0 mph - N/A   Overcast
5:35 PM 17.6 °F 3.2 °F 10.4 °F 73% 29.84 in 1.8 mi North 15.0 mph 25.3 mph N/A   Overcast
5:55 PM 15.8 °F -0.2 °F 8.6 °F 73% 29.84 in 1.8 mi North 17.3 mph 23.0 mph N/A   Overcast
6:15 PM 15.8 °F 0.9 °F 8.6 °F 73% 29.85 in 1.8 mi North 15.0 mph 24.2 mph N/A   Overcast
6:35 PM 15.8 °F -0.6 °F 8.6 °F 73% 29.86 in 1.5 mi North 18.4 mph - 0.01 in   Overcast
6:55 PM 15.8 °F 1.4 °F 8.6 °F 73% 29.86 in 1.5 mi North 13.8 mph 20.7 mph 0.01 in   Overcast
7:15 PM 15.8 °F 0.3 °F 8.6 °F 73% 29.85 in 2.0 mi North 16.1 mph 27.6 mph N/A   Overcast
7:35 PM 15.8 °F 0.3 °F 8.6 °F 73% 29.87 in 1.5 mi North 16.1 mph - N/A   Overcast
7:55 PM 15.8 °F 1.4 °F 8.6 °F 73% 29.87 in 1.8 mi North 13.8 mph - N/A   Overcast
8:15 PM 15.8 °F 0.9 °F 8.6 °F 73% 29.85 in 2.0 mi North 15.0 mph - N/A   Overcast
8:35 PM 15.8 °F 2.1 °F 8.6 °F 73% 29.84 in 2.5 mi NNE 12.7 mph - N/A   Overcast
8:55 PM 15.8 °F 2.7 °F 8.6 °F 73% 29.84 in 2.5 mi North 11.5 mph - N/A   Overcast
9:15 PM 15.8 °F 0.3 °F 8.6 °F 73% 29.84 in 3.0 mi NNE 16.1 mph 20.7 mph N/A   Overcast
9:35 PM 15.8 °F 2.1 °F 8.6 °F 73% 29.84 in 5.0 mi North 12.7 mph 24.2 mph N/A   Overcast
9:55 PM 15.8 °F 1.4 °F 8.6 °F 73% 29.83 in 3.0 mi North 13.8 mph - N/A   Overcast
10:15 PM 14.0 °F -1.4 °F 6.8 °F 73% 29.82 in 2.5 mi North 15.0 mph - N/A   Overcast
10:35 PM 14.0 °F -0.8 °F 6.8 °F 73% 29.83 in 3.0 mi North 13.8 mph 24.2 mph N/A   Overcast
10:55 PM 12.2 °F -4.3 °F 6.8 °F 79% 29.81 in 3.0 mi North 16.1 mph 24.2 mph N/A   Overcast
11:15 PM 12.2 °F -4.3 °F 5.0 °F 73% 29.79 in 2.5 mi North 16.1 mph - N/A   Overcast
11:35 PM 12.2 °F -5.8 °F 5.0 °F 73% 29.77 in 2.0 mi North 19.6 mph 27.6 mph N/A   Overcast
11:55 PM 12.2 °F -4.3 °F 5.0 °F 73% 29.77 in 2.0 mi North 16.1 mph 23.0 mph N/A   Overcast